Wind_Speed
18 20 22 24 25 26 27 27 26 26 25 25 24 23 24 24 25 25 24 23 22 21 21 20 18 18 19 17 15 13 12 10 10 9 8 8 9 10 11 11 12 15 16 16 16 16 17 17 17 17 17 18 16 15 14 14 14 14 15 15 16 17 17 18 19 19 19 19 21 21 21 22 22 22 23 24 25 25 25 26 26 28 29 30 31
18 20 22 24 25 25 26 27 27 27 26 25 24 24 25 26 26 27 25 24 22 22 21 20 18 19 20 18 15 14 13 12 11 10 8 8 9 10 11 11 13 16 17 17 17 17 17 17 17 17 17 17 16 15 15 15 15 15 16 17 18 18 20 20 21 21 20 20 22 22 23 24 25 25 25 26 27 27 27 28 29 30 31 31 31
20 21 22 23 23 25 26 26 26 26 26 26 25 25 26 27 28 28 26 24 23 23 22 21 19 20 21 19 16 16 15 14 13 11 9 8 8 9 11 12 14 16 17 17 17 17 17 18 17 17 17 17 16 15 16 16 16 17 17 18 19 20 21 22 23 23 23 22 23 23 24 25 26 27 27 27 28 28 29 29 30 31 31 31 30
21 22 22 22 22 23 23 24 25 25 25 25 26 26 27 28 29 28 26 25 24 23 23 21 20 21 22 20 17 17 17 16 15 13 10 9 9 10 12 13 14 16 18 18 17 16 17 17 17 17 17 17 17 16 16 17 17 17 18 18 19 20 21 22 23 24 25 25 24 24 26 27 28 29 28 28 28 29 29 29 30 30 31 30 30
21 21 21 21 21 21 21 22 22 22 24 25 25 27 27 28 28 27 26 25 24 24 23 21 20 22 22 21 20 19 18 18 17 14 12 11 11 12 13 14 15 17 18 19 18 16 16 17 18 17 17 17 17 17 17 17 18 18 18 19 19 20 21 22 23 24 25 27 27 26 27 28 29 30 29 29 29 29 28 29 29 30 30 31 32
21 20 19 19 18 18 18 19 19 21 22 23 24 25 26 27 27 26 26 25 24 23 22 21 21 22 23 23 21 20 19 19 18 16 14 13 13 14 14 15 17 18 18 19 19 18 17 17 17 18 18 18 18 18 17 18 19 19 20 20 19 20 21 22 23 25 26 28 29 29 29 30 31 31 30 30 29 29 28 28 29 31 30 31 34
21 20 18 16 15 15 16 17 18 19 20 20 21 22 23 24 25 25 24 24 24 23 22 22 22 23 24 24 23 21 20 20 20 18 16 15 15 15 15 16 18 19 19 18 19 19 19 19 18 18 18 18 18 18 18 19 20 20 21 21 20 20 21 22 24 26 27 28 29 29 30 31 32 32 32 31 30 29 28 28 30 31 31 32 35
21 19 16 14 13 13 14 15 16 17 17 18 18 18 19 20 21 23 23 23 22 22 22 23 24 25 25 25 24 23 21 21 21 20 18 17 17 16 15 16 18 19 19 19 20 21 22 22 21 20 18 17 17 18 19 20 21 22 22 22 22 22 22 24 26 27 28 28 29 30 30 32 34 34 34 33 31 30 29 29 30 32 32 33 35
21 19 17 14 13 13 13 13 13 14 15 16 16 17 18 18 19 20 21 21 22 23 24 25 26 26 26 26 26 24 22 21 22 22 21 19 18 17 16 17 18 19 20 21 22 25 26 26 26 24 20 17 17 18 19 21 22 23 23 24 24 23 24 26 28 29 28 28 29 30 31 33 35 37 36 35 33 31 31 31 31 32 32 33 35
21 20 18 15 14 14 14 13 13 13 14 14 15 16 17 18 18 19 19 20 21 23 25 26 26 26 26 27 27 25 22 22 23 23 23 21 20 19 18 18 19 19 21 23 25 28 29 30 31 28 24 19 18 19 20 21 23 24 25 25 25 25 26 28 29 30 30 29 30 32 32 34 37 38 37 36 35 33 32 32 33 33 33 34 35
21 20 17 16 16 16 15 15 15 14 15 15 16 17 17 18 18 18 19 20 21 23 25 26 27 27 27 28 28 26 24 23 24 25 24 23 22 21 20 20 20 21 23 25 28 30 32 33 32 29 26 23 22 22 23 23 24 25 26 27 27 27 28 30 31 32 31 31 32 33 34 35 37 38 37 36 36 35 35 34 34 34 34 35 36
20 19 18 18 19 18 17 17 17 17 18 18 19 20 20 19 18 18 18 20 22 23 25 26 27 28 29 30 29 27 25 25 26 26 25 24 24 23 23 22 21 22 25 28 30 34 36 35 33 31 31 29 27 27 27 26 27 28 28 28 28 29 30 31 31 32 33 33 34 35 36 36 36 37 38 38 38 38 37 36 35 35 35 35 37
19 19 19 20 21 20 20 21 21 21 21 22 22 23 24 23 21 20 19 20 21 23 25 27 29 30 30 30 30 29 27 28 28 27 26 25 26 26 26 25 23 24 27 30 32 36 38 36 34 33 33 32 30 30 29 29 30 31 30 29 29 30 31 32 33 34 34 35 37 37 37 37 37 37 38 38 38 38 35 34 34 34 34 36 38
20 20 21 22 22 23 24 23 23 24 25 26 26 26 26 25 24 24 23 22 22 22 24 27 29 30 31 31 31 30 30 30 30 28 26 26 27 28 29 28 26 27 29 30 32 36 36 33 31 30 30 30 30 30 30 31 32 32 31 29 30 31 33 34 35 36 36 37 39 40 38 36 35 35 37 38 39 38 35 32 32 33 34 36 39
23 22 21 22 23 26 27 26 26 26 27 29 29 29 28 28 28 27 26 25 25 24 25 26 28 29 30 31 32 32 32 32 31 29 28 27 28 29 31 31 30 30 29 29 32 34 33 31 30 30 31 31 32 33 33 33 32 31 30 30 30 32 34 36 37 38 39 40 42 42 41 37 35 35 37 38 39 40 39 37 36 37 38 40 44
27 26 25 23 24 25 27 27 27 27 28 30 31 31 30 30 30 30 29 28 27 26 27 27 27 28 30 32 33 33 33 33 33 31 29 29 30 31 32 33 33 32 29 28 30 33 32 32 32 33 32 33 34 35 36 34 31 29 30 30 31 33 35 37 39 40 42 43 44 44 42 39 37 36 36 36 38 41 42 43 44 45 44 46 50
31 29 28 27 26 26 27 27 27 28 29 30 31 32 32 32 33 33 33 31 29 28 28 28 29 29 30 32 34 34 35 35 34 32 31 32 32 32 33 34 35 33 30 28 30 32 34 34 34 34 34 34 36 36 36 35 32 30 30 31 32 33 35 37 39 41 43 45 46 44 40 38 37 36 35 37 40 42 43 45 47 47 48 51 55
32 32 31 31 31 30 29 29 29 30 31 31 31 32 33 34 35 36 36 35 33 32 31 31 31 31 32 32 33 35 36 37 37 36 35 34 34 33 34 35 36 34 31 31 31 33 34 36 37 37 36 36 36 37 37 35 33 32 32 33 34 35 36 37 39 41 43 45 44 41 39 37 37 36 38 41 43 44 44 44 44 46 50 53 55
34 36 35 35 36 36 34 34 34 34 35 34 35 36 37 37 38 39 39 39 38 36 35 35 34 33 34 34 34 36 38 39 39 38 38 37 36 34 34 36 36 34 33 33 34 34 34 36 38 39 39 38 37 38 38 36 35 35 35 36 36 37 37 37 38 40 41 42 41 39 39 40 40 40 42 44 43 43 43 42 43 46 50 52 53
38 39 39 40 40 40 39 38 38 38 38 38 38 40 40 39 39 40 40 41 41 40 39 38 37 36 36 36 36 37 39 41 41 41 41 40 38 36 35 37 37 35 34 35 36 36 36 36 37 39 40 40 38 39 39 39 38 37 37 38 39 39 39 38 38 39 39 39 40 40 41 42 43 43 43 42 42 43 43 42 44 48 51 52 51
38 39 41 43 45 45 42 40 41 41 41 40 40 41 42 41 41 41 41 43 45 45 44 42 42 41 40 39 39 39 39 41 43 44 44 43 40 38 37 37 37 36 36 36 37 39 39 38 39 40 41 41 39 40 41 41 40 39 39 39 40 40 39 38 38 39 39 39 40 41 40 41 42 43 42 41 42 44 43 44 46 49 51 51 51
38 40 41 41 43 44 42 40 41 43 44 44 42 41 41 42 43 43 43 44 44 45 47 47 46 45 45 43 42 41 41 42 44 46 46 44 43 41 39 38 37 38 37 36 37 40 41 40 40 41 42 41 40 40 42 42 41 40 40 40 40 40 39 38 39 41 41 42 42 41 39 39 42 43 43 43 44 44 44 46 49 49 50 52 54
40 41 41 40 40 41 41 42 43 44 45 46 45 44 44 45 45 45 46 47 47 48 50 51 51 50 50 48 45 44 44 44 45 48 49 47 46 44 41 39 38 39 39 37 38 41 41 41 42 42 42 41 40 41 43 43 42 41 41 41 40 40 39 39 40 42 43 43 43 40 37 39 41 43 43 44 45 46 48 50 51 50 51 53 53
41 41 41 41 41 42 43 44 45 45 46 47 47 48 48 48 48 48 49 51 53 53 53 54 53 52 52 51 49 47 46 47 48 49 51 50 48 47 45 41 40 41 40 38 40 42 43 43 44 44 43 41 40 41 43 44 43 42 42 41 40 40 39 39 40 42 43 44 43 39 37 39 41 43 44 46 48 50 52 52 49 47 48 47 45
46 45 45 44 45 46 46 47 48 49 50 50 50 51 51 52 52 51 52 54 56 56 56 55 55 54 53 53 53 51 49 49 50 52 54 53 50 50 49 45 42 44 43 40 42 45 45 45 47 46 44 42 40 41 43 44 43 42 42 42 41 40 40 39 40 41 43 44 42 39 38 39 41 43 45 48 50 51 50 47 44 43 42 40 37
48 47 47 47 47 47 49 50 50 51 53 54 54 54 55 56 56 55 55 56 57 57 57 54 53 54 55 55 55 55 54 53 52 54 56 56 54 54 52 48 47 48 46 43 44 46 47 48 48 47 45 43 41 41 43 44 44 43 42 42 41 41 40 39 40 41 43 44 42 40 39 40 42 43 45 47 48 46 43 41 41 39 37 35 33
47 47 47 47 48 49 50 51 51 52 54 55 55 54 55 56 57 57 57 58 57 57 57 55 54 56 58 58 58 59 58 58 57 57 58 58 58 57 54 51 52 52 48 45 45 47 47 48 50 49 44 41 40 41 43 43 43 42 42 42 42 41 40 39 40 41 42 43 43 40 39 40 40 41 42 42 42 40 39 38 37 35 32 31 30
46 46 47 48 49 50 51 51 52 53 55 56 56 55 54 54 55 56 56 58 58 59 59 59 59 60 61 60 61 61 62 63 62 61 61 60 61 62 59 56 57 57 52 46 46 47 47 49 50 48 42 38 39 41 43 43 43 42 42 42 42 41 40 39 40 41 42 43 42 40 38 37 38 38 38 37 37 36 35 33 32 30 29 29 29
45 46 47 47 48 49 50 52 53 54 56 57 57 57 55 55 56 57 57 58 60 61 62 63 64 64 65 64 62 61 63 65 65 65 65 65 65 64 63 62 61 59 53 48 46 46 47 49 49 45 41 39 40 42 43 43 43 42 42 42 41 40 39 39 40 41 42 42 40 38 36 35 35 34 33 33 33 32 30 29 28 28 28 29 31
48 48 48 48 49 49 51 53 54 55 56 57 58 58 59 59 61 62 62 61 61 62 64 65 66 68 69 68 66 66 67 67 68 68 68 69 70 70 68 65 63 58 52 48 46 46 47 50 49 44 40 40 41 42 43 43 42 42 42 41 40 39 39 39 40 41 42 41 39 36 33 32 31 31 30 30 30 29 28 27 27 27 28 30 32
50 49 49 49 49 49 51 54 55 57 58 58 59 60 61 62 65 68 69 68 67 66 66 66 67 70 72 72 71 70 71 72 70 67 64 63 66 70 70 64 58 56 53 48 47 47 48 50 49 44 39 39 40 42 44 43 42 41 41 41 40 38 38 39 40 41 41 40 36 32 30 29 29 29 28 27 27 27 26 26 26 27 29 31 33
50 49 49 49 49 49 51 53 55 56 57 59 60 61 62 65 70 73 74 73 73 73 73 72 71 72 74 76 76 72 69 70 71 69 66 62 60 65 70 65 55 52 51 49 49 50 49 50 50 43 38 39 40 42 43 43 42 41 41 40 39 38 38 38 39 40 40 37 32 30 28 28 28 27 26 26 26 26 26 26 27 28 31 32 33
48 49 49 49 48 48 49 51 54 55 56 57 58 59 62 66 71 73 74 75 77 79 80 80 81 82 81 78 75 72 69 68 69 70 71 67 61 62 70 70 58 52 50 48 48 50 50 50 48 42 38 38 40 41 42 42 41 40 40 39 38 37 38 38 38 39 37 33 30 29 28 27 26 26 25 25 25 25 25 26 28 30 31 33 33
47 47 47 47 47 48 50 53 55 56 56 55 55 56 61 66 70 72 73 75 79 83 85 87 87 86 87 85 79 72 67 65 65 67 69 67 63 62 65 64 53 47 48 48 48 49 51 49 43 38 37 38 40 41 41 40 39 39 38 38 37 37 37 37 38 37 34 30 28 27 26 26 25 25 24 24 23 24 25 26 28 31 32 33 33
45 44 45 46 46 48 50 52 54 55 54 54 55 58 62 66 70 70 72 77 83 85 89 96 96 87 83 84 79 71 69 69 67 65 66 69 69 67 64 61 52 43 44 49 50 49 49 45 39 36 36 38 39 40 40 39 38 38 37 37 37 37 36 37 37 35 31 27 26 25 25 25 24 23 23 22 22 23 25 27 29 31 32 32 32
43 43 44 46 47 49 51 52 53 54 52 52 55 57 60 64 66 67 68 70 71 67 63 71 86 89 84 80 72 62 60 63 61 57 59 66 69 67 67 67 59 47 43 48 50 48 44 39 36 36 37 38 39 39 38 37 37 37 36 36 36 36 36 36 35 32 27 25 24 24 24 24 23 21 21 20 21 23 25 27 29 30 30 30 31
42 42 43 45 47 49 50 51 52 51 49 50 52 54 57 61 62 64 59 44 31 38 44 39 49 69 76 75 72 64 56 54 56 57 59 64 65 64 66 67 62 52 46 47 49 46 40 37 36 37 38 38 39 38 36 36 36 36 36 36 35 35 35 35 33 29 25 23 23 24 23 22 20 19 19 19 20 23 25 28 28 28 28 28 29
41 41 41 42 43 45 46 47 47 46 45 47 49 50 55 57 55 58 58 39 18 34 42 28 27 44 56 57 59 63 63 62 63 63 62 62 62 63 63 60 57 53 50 48 47 43 39 37 37 38 37 38 37 36 36 36 36 36 35 35 34 35 35 34 30 26 23 23 23 22 21 19 18 17 17 18 20 23 25 26 26 26 26 27 28
41 40 41 41 42 44 44 44 44 42 40 43 45 46 49 52 48 46 51 46 31 29 36 28 19 26 39 46 48 54 60 63 62 60 60 60 59 61 61 56 52 50 49 48 46 43 40 38 38 37 37 37 36 35 36 36 35 35 35 34 34 35 34 32 27 23 22 22 21 20 18 16 15 15 16 18 21 23 24 24 24 24 25 26 27
43 42 42 42 42 42 42 41 39 37 35 37 40 39 37 39 39 36 36 39 38 37 42 44 37 28 29 38 44 46 49 51 51 54 57 55 51 53 57 55 50 48 47 46 43 40 39 39 38 38 37 36 35 35 36 35 35 35 34 34 34 34 33 30 25 21 20 20 19 17 15 14 14 15 17 19 21 22 22 22 22 23 24 25 28
43 42 42 42 40 40 40 37 35 33 32 32 34 33 30 28 29 28 27 26 24 24 30 38 37 28 26 33 39 43 45 45 44 45 46 44 41 43 47 48 47 47 48 46 43 40 40 40 39 38 37 35 34 35 35 35 35 34 34 34 34 33 32 28 23 20 19 18 16 15 13 12 14 15 17 19 20 20 20 21 21 22 24 26 28
43 42 42 42 41 40 39 37 33 30 30 29 29 28 28 27 27 26 24 21 16 12 12 15 17 18 23 30 34 36 39 39 37 35 35 36 38 41 44 46 48 49 48 46 43 41 41 41 40 37 35 34 35 35 35 35 35 34 34 33 33 32 30 26 21 19 18 16 14 13 12 13 14 16 17 18 19 19 19 20 20 21 24 26 28
43 43 42 42 42 40 38 37 33 30 28 29 28 26 25 24 24 24 23 22 18 15 12 11 12 14 19 23 25 27 29 31 32 33 34 37 40 43 45 48 49 47 44 43 42 42 42 42 39 36 35 34 35 35 35 36 35 34 33 33 33 31 28 24 20 18 17 15 14 13 13 14 15 16 17 18 18 18 18 18 19 21 24 26 28
43 43 42 41 41 40 38 36 34 32 29 28 28 27 25 24 22 21 21 21 20 19 17 17 17 19 21 23 25 28 29 31 32 34 37 40 42 44 45 46 45 43 42 42 43 44 44 42 38 35 34 34 34 35 36 36 35 34 34 33 32 30 27 23 20 18 16 15 14 14 14 15 15 16 17 17 17 17 17 18 19 21 24 26 28
43 43 43 42 41 40 38 36 34 33 31 29 28 27 26 24 23 22 22 22 22 22 22 21 22 22 23 25 27 30 32 34 35 36 38 41 42 43 43 42 41 42 43 44 45 45 43 40 37 34 34 35 35 36 36 36 35 34 34 33 31 29 26 23 21 19 17 15 15 14 15 15 16 16 17 17 17 17 17 17 19 21 23 26 28
42 42 42 42 41 39 37 36 34 33 31 29 28 28 27 26 25 25 25 26 26 26 26 26 26 26 26 27 28 29 32 34 36 37 38 39 40 40 40 40 41 43 45 46 47 45 42 39 36 35 35 36 37 36 35 35 35 34 33 32 30 28 26 24 22 20 17 16 15 15 16 16 16 17 17 17 17 17 17 17 19 21 23 26 28
39 39 40 41 42 41 39 37 35 34 33 30 28 27 27 27 28 28 30 31 32 32 32 32 31 31 30 30 31 31 32 32 33 35 36 37 37 37 38 40 42 45 47 48 48 46 42 38 37 37 37 37 35 35 35 35 35 34 33 31 30 28 26 25 23 20 18 17 17 17 17 17 17 17 17 17 17 17 17 18 19 21 23 26 28
35 35 35 36 38 40 40 39 36 35 34 33 31 28 27 27 28 30 32 34 34 34 34 34 35 35 35 36 35 35 34 33 33 34 35 36 36 37 39 42 44 47 48 48 47 45 41 39 38 38 37 35 34 34 35 35 35 34 32 31 29 28 27 26 24 22 20 19 18 18 18 18 18 18 18 18 18 18 18 18 20 21 24 26 28
33 32 32 32 33 35 36 36 36 35 35 35 33 30 28 27 28 28 30 31 32 32 33 34 35 36 36 36 36 36 35 35 35 36 37 38 39 40 41 43 45 47 46 44 42 40 39 38 37 36 34 33 34 35 35 35 35 33 32 31 29 28 27 27 25 23 22 21 20 19 18 18 19 19 20 20 20 19 18 19 20 22 24 26 28
33 32 31 31 32 33 34 34 34 35 35 36 34 31 28 27 27 27 27 28 29 28 28 29 30 31 31 32 34 35 37 38 38 39 39 40 41 42 43 44 44 42 40 38 36 36 36 36 35 34 33 33 34 35 35 35 34 33 31 31 30 29 28 27 26 25 24 22 21 20 19 20 20 21 21 21 21 20 20 20 21 22 24 26 28
34 34 33 33 33 33 33 33 33 33 33 33 33 31 29 28 27 27 26 27 27 28 28 27 26 26 27 28 29 30 33 35 36 37 38 38 38 39 38 38 36 34 32 32 33 33 34 33 33 32 33 33 34 35 35 35 34 33 32 31 30 29 29 28 27 26 25 24 23 22 21 21 22 22 22 22 22 21 21 21 21 23 24 26 27
Wind_Direction
252 253 252 251 249 247 244 242 241 241 243 246 249 250 252 255 257 259 262 265 265 259 255 256 252 241 237 238 238 236 237 243 253 265 278 293 311 325 333 335 339 344 346 346 346 346 348 350 351 350 351 352 350 349 353 355 354 350 345 342 339 337 334 331 330 330 327 321 317 314 312 309 306 302 297 292 288 286 284 284 283 283 283 284 285
252 253 251 248 247 245 243 242 242 244 246 248 250 251 253 256 258 259 262 262 260 255 253 254 247 236 236 240 239 238 241 245 253 261 272 288 310 326 333 337 342 345 347 348 349 349 352 355 357 358 358 358 357 354 353 354 352 349 346 341 337 334 331 328 327 327 325 320 316 313 311 308 306 303 298 293 290 288 286 285 285 284 284 284 284
251 250 250 249 247 245 244 243 243 244 246 248 250 251 253 255 257 259 259 257 255 253 252 251 241 232 236 241 239 238 244 249 253 258 268 284 305 320 326 332 340 344 346 347 348 349 351 354 357 0 1 0 359 355 351 349 347 344 342 339 336 332 327 324 324 324 322 319 315 312 310 307 306 304 300 298 295 292 289 287 285 284 284 284 284
249 251 252 251 249 248 247 246 246 246 247 247 249 250 251 253 255 257 257 255 252 252 252 248 236 230 236 242 239 238 244 251 254 258 265 278 294 307 316 326 336 341 343 344 344 345 347 349 353 357 358 357 357 353 349 345 341 338 337 336 333 329 324 322 322 321 320 318 315 312 310 308 306 304 302 300 297 293 290 288 286 285 285 285 283
250 253 253 252 252 252 250 248 248 248 248 248 248 249 250 251 253 254 255 253 251 250 250 244 233 228 236 242 238 237 244 250 255 259 264 274 286 297 307 319 330 336 338 339 339 340 340 342 345 350 353 352 352 351 347 341 335 332 332 333 331 326 321 320 319 318 317 316 314 313 311 308 305 304 303 301 298 295 293 291 289 287 286 285 284
250 253 253 254 254 252 251 249 248 247 247 247 248 249 249 250 251 251 251 252 250 249 247 242 232 229 236 242 240 237 243 250 254 258 264 272 281 290 302 316 325 331 333 334 335 336 336 336 336 339 343 345 345 345 342 337 331 328 329 332 330 324 320 318 317 315 314 313 313 313 311 308 306 304 303 302 300 297 295 292 290 287 286 285 285
249 252 254 256 256 255 254 251 248 247 247 247 248 249 250 251 252 251 249 249 250 250 247 241 233 231 238 244 242 238 242 249 254 258 264 271 278 286 298 312 322 327 329 331 333 334 334 332 330 329 333 335 336 336 335 332 327 325 328 331 328 324 321 318 317 315 313 312 312 313 313 310 307 305 304 303 301 299 296 293 290 289 288 287 286
247 249 252 256 260 260 258 254 252 251 250 251 251 253 255 257 258 255 252 251 252 253 249 241 236 236 242 247 244 239 241 247 253 259 264 270 275 283 297 311 319 322 323 326 329 329 328 326 323 321 322 325 327 328 328 326 323 323 326 328 327 324 321 319 317 314 313 313 313 314 314 311 307 306 305 304 303 301 299 295 290 289 290 289 288
244 245 248 254 261 262 260 259 258 256 256 256 257 257 258 260 262 262 259 255 255 256 252 245 242 244 248 251 247 242 242 246 252 259 265 270 275 282 296 308 314 317 319 323 324 324 321 318 315 311 308 311 317 321 321 320 320 321 324 326 325 322 320 318 316 313 313 314 315 315 315 311 307 306 305 305 304 302 300 296 292 290 291 290 291
244 245 247 253 258 259 261 263 263 264 265 264 264 265 264 262 262 264 263 260 258 258 254 250 250 252 254 254 250 245 243 245 251 259 265 271 277 285 296 305 310 313 316 319 321 320 316 311 306 301 298 302 311 313 314 316 317 320 323 325 322 319 319 317 315 314 314 314 316 317 315 310 306 305 304 302 302 300 298 295 293 294 295 294 293
244 246 246 249 254 257 262 266 269 271 273 273 273 275 274 272 269 266 264 263 261 259 257 254 255 258 259 257 251 247 244 246 251 258 265 272 279 287 295 303 307 308 311 315 315 312 307 304 302 299 298 303 309 310 310 312 316 321 324 323 320 318 318 318 316 315 314 314 316 317 314 309 305 303 301 300 299 298 296 295 295 298 299 298 296
241 243 243 246 251 256 261 265 267 270 274 276 277 276 276 278 281 279 275 268 262 260 259 257 258 260 261 259 253 248 246 246 251 258 265 273 280 287 294 300 302 303 305 306 306 307 306 302 301 302 303 307 310 313 314 316 319 322 323 322 318 318 319 318 316 314 313 314 316 317 313 308 304 303 301 299 299 297 296 296 298 300 301 301 300
239 240 240 244 249 254 257 260 263 267 271 274 275 274 276 279 282 282 281 277 272 268 263 260 259 261 262 259 254 250 248 247 252 259 266 273 281 287 292 296 298 300 300 300 306 314 313 304 299 302 309 314 314 314 316 320 322 322 322 320 317 317 320 319 315 313 314 314 314 314 314 310 308 305 300 297 298 298 297 297 299 300 302 303 302
237 237 237 242 247 251 255 258 261 264 266 269 272 274 277 279 278 278 278 281 284 281 272 265 262 262 262 260 255 252 250 250 254 259 266 273 280 286 290 293 294 295 297 303 314 321 319 311 307 309 315 320 320 317 317 319 321 319 319 318 317 318 319 319 316 315 315 313 312 313 313 310 306 301 294 291 293 294 294 295 298 300 301 303 303
238 237 237 240 244 249 254 258 261 262 263 265 269 272 274 275 276 276 277 277 280 281 277 272 268 265 263 259 255 254 253 253 256 261 266 271 276 282 287 290 291 293 299 310 318 321 320 318 315 311 313 318 320 321 321 320 318 317 316 317 316 317 318 318 318 317 315 312 312 313 312 307 301 294 290 289 291 291 289 288 291 296 300 304 306
237 236 237 239 241 245 250 254 255 255 256 259 263 266 268 270 272 273 274 273 274 276 278 277 273 270 266 259 255 254 255 255 257 261 265 269 273 280 284 287 289 293 301 312 317 316 315 315 315 314 315 317 319 321 322 321 319 316 315 315 315 315 317 318 317 316 315 314 313 313 311 306 300 295 290 289 293 295 291 288 288 291 299 306 308
235 237 239 239 238 239 241 245 249 251 252 254 258 262 264 265 265 266 268 270 271 272 274 274 271 269 266 262 257 255 256 257 258 259 262 265 271 277 281 284 288 292 300 309 312 311 310 312 316 318 317 316 318 320 321 322 321 317 314 315 315 315 315 316 316 315 314 314 314 313 311 306 302 298 291 290 295 298 296 293 291 291 299 306 306
235 238 240 240 239 240 240 241 244 246 247 249 251 255 258 260 261 262 263 264 267 268 269 269 267 265 265 263 259 255 254 255 255 256 259 264 269 273 277 281 286 291 298 304 305 306 308 310 313 315 314 314 317 320 321 321 320 317 316 316 316 315 314 314 314 314 314 313 313 312 310 306 302 296 289 291 296 298 297 297 295 296 301 303 303
242 240 242 243 244 244 244 244 245 247 249 251 250 250 250 251 253 255 257 258 260 262 264 264 264 264 263 262 259 255 253 253 253 255 257 262 266 270 273 278 283 289 294 298 299 301 304 306 309 311 311 312 316 319 320 320 318 316 318 318 315 314 314 315 314 314 313 312 311 310 308 305 302 296 292 293 295 296 296 296 298 302 303 302 301
247 242 240 242 244 246 248 249 249 252 257 261 261 259 258 256 252 250 251 254 255 256 258 261 263 263 261 259 257 255 253 252 252 253 256 260 264 266 270 275 280 285 289 292 296 299 301 302 305 308 308 311 316 318 318 318 317 317 317 316 313 313 314 315 313 311 310 311 311 309 308 306 303 299 296 294 294 295 294 296 302 305 303 301 301
256 252 247 245 245 245 247 250 251 253 257 261 262 262 264 264 262 257 252 249 250 251 252 254 256 258 259 258 257 256 254 252 251 252 254 258 261 263 266 271 276 279 283 287 292 296 297 300 303 305 306 309 313 316 316 316 316 316 314 312 311 313 313 311 310 308 309 310 309 308 306 305 302 298 294 292 292 293 294 299 304 305 302 301 303
263 264 263 260 257 254 256 261 264 264 265 266 267 269 268 266 268 269 264 257 255 255 254 252 251 252 254 254 255 255 253 251 250 251 253 256 259 260 263 267 272 275 278 283 288 291 293 297 300 301 303 307 310 313 313 314 313 312 311 309 309 311 311 308 307 308 309 309 308 307 305 304 300 295 291 289 290 293 297 303 306 304 301 302 304
265 267 269 271 271 269 268 272 274 274 274 274 276 279 277 273 272 274 273 269 267 265 261 255 252 252 251 250 251 252 252 250 249 249 252 254 256 257 259 263 268 271 274 278 282 286 289 293 296 298 300 303 307 310 310 310 310 308 307 307 308 308 308 306 306 307 308 308 308 308 305 301 298 294 290 289 292 296 302 305 305 302 301 303 304
268 269 269 269 270 271 271 272 273 273 274 275 275 275 275 275 275 274 273 273 272 269 264 256 252 253 253 251 250 250 250 250 249 248 250 253 254 255 257 260 264 267 271 274 277 281 285 289 291 295 298 300 303 306 307 307 307 305 305 306 307 306 305 304 305 305 307 309 310 308 305 300 296 294 293 293 296 299 303 305 304 303 303 304 305
265 266 266 265 266 267 268 268 269 270 272 273 273 272 271 272 272 271 271 270 269 268 266 260 255 255 255 255 254 253 250 249 249 248 249 251 252 253 255 258 261 265 267 270 274 277 282 285 288 291 295 297 300 302 304 305 305 304 305 305 304 303 302 304 305 307 309 310 309 308 305 302 298 296 296 296 298 301 304 306 307 306 307 307 307
265 266 266 267 267 268 269 269 270 273 275 275 275 274 273 272 270 268 266 266 264 262 263 264 261 259 257 256 256 254 251 249 248 248 248 249 250 251 254 256 259 262 264 266 270 275 279 282 284 288 291 293 297 300 302 304 304 304 303 302 301 301 303 305 307 308 309 309 309 309 307 305 302 300 298 298 300 303 307 309 309 310 310 309 309
268 269 269 269 269 270 271 272 273 274 275 275 275 274 273 271 269 266 266 267 265 262 263 265 264 262 260 258 256 256 253 250 247 247 247 248 248 250 252 255 257 258 261 263 266 271 276 278 280 285 289 291 294 298 301 303 303 303 301 301 300 301 304 307 307 307 308 308 309 310 308 306 304 302 301 302 304 307 310 311 311 312 311 310 311
267 267 267 267 268 269 270 271 271 271 272 273 273 272 271 269 268 267 265 265 264 263 263 263 260 258 258 256 255 256 255 252 249 247 246 246 248 249 250 252 254 255 257 259 262 266 271 275 278 283 289 292 293 296 299 301 302 302 301 300 300 301 304 306 305 306 308 308 308 308 307 306 305 305 304 306 308 310 312 313 313 312 312 312 313
264 263 263 263 264 266 267 268 268 269 270 270 270 270 269 269 268 267 265 263 261 260 259 258 255 254 254 253 252 253 254 254 253 251 249 245 245 247 248 248 251 253 254 256 259 263 267 272 276 282 287 290 292 295 297 299 300 301 301 299 299 301 303 304 305 306 307 308 308 309 309 308 308 308 308 309 311 313 314 314 313 312 313 314 314
265 264 264 264 265 267 268 268 269 269 269 269 269 269 268 268 268 267 266 264 262 260 258 256 255 256 256 255 252 250 251 252 252 254 253 248 243 243 245 246 250 253 254 255 259 262 265 270 274 279 283 286 290 293 295 297 299 300 299 298 298 300 302 304 306 307 307 308 309 310 311 310 310 311 311 311 313 315 315 314 313 313 313 313 314
265 265 264 264 265 266 267 268 269 270 269 269 268 268 268 267 267 266 267 266 265 263 261 259 257 257 258 258 255 252 251 253 254 257 259 254 247 245 246 247 252 255 254 254 259 262 266 270 274 278 281 284 288 292 293 296 299 299 298 297 297 300 302 304 306 307 307 308 309 311 312 313 314 315 314 314 315 316 315 314 313 312 312 313 315
265 265 266 266 266 265 266 267 268 269 269 269 269 269 269 268 267 266 266 265 264 263 262 260 259 257 256 256 257 255 254 254 256 258 261 260 256 251 247 247 253 256 252 253 258 262 265 270 273 277 281 283 286 290 292 295 297 296 295 296 297 300 302 304 305 306 305 306 309 314 317 317 317 316 316 316 317 317 316 314 313 312 313 315 317
266 266 267 267 267 267 266 267 268 269 269 270 270 270 270 269 268 267 266 267 266 264 262 260 258 256 254 254 255 255 255 254 254 257 260 261 261 255 246 243 250 255 250 251 259 262 264 270 273 274 278 282 285 289 291 293 294 294 293 295 298 299 301 303 304 304 303 306 313 319 320 318 317 317 318 319 318 317 316 314 313 313 315 318 319
268 267 267 267 268 268 267 269 270 271 272 272 272 271 271 270 270 270 271 270 269 266 264 260 257 253 250 249 250 251 253 254 254 255 258 260 262 258 247 241 245 251 250 254 261 263 266 272 274 273 276 280 283 287 290 291 291 292 293 295 297 298 300 302 302 302 303 310 318 320 318 318 319 320 321 320 318 317 315 314 314 316 318 320 321
268 268 267 267 268 268 269 272 273 274 275 276 275 275 275 275 276 277 277 277 277 273 265 257 252 249 244 243 246 249 251 252 252 251 253 256 260 261 255 246 244 249 253 256 260 263 268 272 273 272 276 280 283 286 288 289 289 290 292 294 295 297 299 300 300 300 305 313 318 317 317 319 322 322 322 320 317 315 315 314 316 319 321 323 324
269 268 267 267 267 268 270 273 274 276 278 277 277 278 278 279 280 279 281 287 291 287 274 253 242 238 236 235 237 241 244 246 246 246 249 253 255 259 259 253 247 250 256 258 260 265 268 269 269 272 277 280 282 285 286 286 287 289 290 292 294 296 298 298 297 300 308 314 315 316 318 321 323 322 320 317 315 315 315 316 319 322 324 326 327
267 267 267 268 268 268 270 271 273 276 278 277 278 279 279 280 281 279 281 290 286 270 268 256 231 227 231 232 233 234 237 242 245 245 249 253 255 258 260 254 248 250 258 261 263 266 266 266 270 275 278 280 282 284 284 285 286 288 289 291 293 294 295 295 296 301 309 313 314 317 320 322 322 321 317 314 313 315 317 318 321 324 327 329 330
266 268 270 272 271 271 272 273 274 276 277 276 278 278 276 277 278 275 277 286 259 225 232 228 209 217 227 232 234 235 236 241 246 248 251 254 256 257 257 251 247 251 258 262 265 264 263 267 272 275 277 279 281 281 282 283 285 286 288 290 292 292 293 293 295 301 309 311 313 317 320 321 321 316 311 310 313 315 318 320 323 326 329 330 332
268 270 272 274 274 274 275 276 276 278 279 279 279 279 276 276 277 274 273 278 271 235 219 214 222 237 233 229 233 237 237 240 246 250 252 254 254 252 250 250 250 254 259 263 263 261 261 268 272 274 276 279 278 278 280 281 282 284 286 288 289 290 290 291 294 300 306 309 312 316 318 317 315 308 305 308 313 315 318 321 323 326 330 332 333
269 270 271 273 274 274 275 275 276 278 281 281 281 282 282 280 280 282 276 269 266 259 247 243 252 262 244 232 238 244 243 246 251 253 253 254 251 246 246 250 254 258 261 261 259 258 263 269 271 273 276 277 275 276 278 279 280 283 284 286 287 287 287 289 292 297 302 305 309 312 312 309 305 301 302 308 313 315 318 320 323 327 330 332 332
266 267 268 270 272 272 271 271 272 273 277 280 280 282 285 284 280 282 281 271 265 266 254 243 243 249 245 241 248 253 252 252 253 252 252 253 249 246 248 252 257 261 262 259 258 262 267 269 270 273 274 273 272 273 276 276 278 281 282 283 284 284 285 286 288 291 296 299 302 304 303 299 297 298 303 309 312 314 315 318 322 327 330 331 332
263 264 265 266 267 268 268 268 269 270 271 275 278 279 282 284 282 282 283 279 276 275 262 242 240 246 246 246 252 255 253 251 250 251 253 254 253 253 255 258 261 263 262 259 261 265 268 268 269 271 270 269 269 272 273 274 277 279 280 281 281 281 282 283 283 284 287 290 293 294 293 293 295 298 303 307 309 310 313 317 322 327 329 330 331
263 264 265 265 264 265 265 264 265 267 267 270 275 278 280 281 282 281 282 285 288 290 288 278 265 257 253 253 256 256 253 251 252 254 256 256 256 257 259 260 261 261 259 258 262 265 266 266 267 266 265 266 268 269 271 273 275 277 278 278 277 278 279 278 275 276 278 281 284 286 288 290 293 297 301 303 304 306 311 316 321 325 327 329 330
263 264 264 264 263 264 265 264 263 263 264 265 269 274 276 276 276 276 276 278 282 284 284 279 270 263 260 260 259 259 260 260 260 260 259 259 259 260 260 260 258 256 256 259 262 264 264 264 263 262 262 264 265 267 270 272 273 275 275 275 275 276 275 272 268 268 270 273 278 281 283 287 291 294 296 298 299 302 308 314 319 323 326 328 329
263 263 262 262 261 261 262 263 261 260 261 262 264 267 270 271 271 271 271 273 275 277 277 276 273 269 266 264 263 264 265 265 265 264 263 261 260 261 260 258 254 253 256 260 262 263 262 260 258 258 260 261 263 266 268 270 271 272 272 272 272 272 270 265 262 262 264 268 272 275 279 283 286 289 291 292 294 299 304 310 316 321 325 326 327
264 263 262 260 258 257 258 259 258 258 258 259 261 265 269 272 274 275 275 275 275 275 274 273 272 272 271 270 269 268 266 265 264 263 262 261 260 259 257 253 252 254 257 260 261 260 258 255 254 255 257 259 262 264 266 268 270 270 269 269 270 268 265 261 258 258 259 263 267 270 275 279 283 286 287 288 290 294 300 307 314 319 323 325 326
264 263 262 259 255 253 253 253 253 255 257 259 261 265 270 275 279 281 281 280 279 279 279 277 275 274 274 274 274 272 269 267 265 263 262 261 260 257 254 254 256 258 260 261 261 259 256 254 254 255 256 259 261 263 265 267 268 268 267 267 267 264 261 258 255 255 257 260 263 267 272 276 280 283 283 283 286 290 296 304 311 317 321 323 324
263 262 262 261 257 253 253 254 255 257 260 264 268 272 275 279 281 281 282 283 283 283 282 281 280 278 277 275 274 272 270 268 266 264 263 263 261 260 260 261 262 263 264 265 263 261 259 258 257 256 256 258 259 261 264 265 266 266 266 265 263 261 258 255 254 254 256 258 260 265 269 274 278 280 279 279 281 285 292 300 308 314 318 321 323
262 262 262 262 261 258 257 258 261 263 266 268 271 273 274 275 276 277 279 282 283 283 282 281 279 277 274 272 271 270 269 268 266 265 264 264 264 264 264 265 265 266 266 266 264 262 260 258 256 254 255 256 258 260 263 264 264 264 264 262 261 259 256 254 254 255 256 257 260 263 268 272 275 276 276 276 278 282 288 297 305 311 316 319 321
261 261 261 261 261 260 259 260 261 263 264 266 267 268 268 267 267 267 269 272 276 280 281 279 276 273 271 270 269 268 267 266 265 265 264 264 264 264 264 265 265 264 262 261 260 258 256 254 252 252 253 255 258 260 262 263 263 262 261 260 259 257 255 254 255 256 257 258 260 262 266 270 272 273 273 274 276 280 286 293 301 307 312 316 319
261 260 260 259 259 259 260 261 261 262 263 263 264 264 264 263 263 263 263 264 267 269 271 273 274 272 270 269 269 268 267 266 265 264 264 263 262 262 261 260 259 257 256 254 253 252 251 251 252 253 254 256 258 260 261 262 262 261 259 258 257 255 255 256 257 258 259 259 260 261 264 267 269 271 272 273 275 278 283 289 297 304 309 313 316
Height
5895 5896 5897 5898 5898 5899 5900 5901 5902 5903 5904 5905 5906 5907 5907 5908 5908 5908 5909 5910 5910 5911 5911 5912 5913 5914 5914 5915 5915 5914 5914 5914 5913 5913 5913 5914 5914 5913 5912 5912 5911 5910 5909 5907 5905 5903 5902 5900 5898 5897 5896 5895 5894 5893 5892 5891 5891 5891 5890 5890 5889 5888 5887 5886 5885 5884 5884 5883 5882 5881 5880 5878 5877 5876 5874 5873 5871 5870 5869 5868 5868 5867 5866 5865 5863
5893 5893 5894 5894 5895 5896 5897 5898 5899 5900 5901 5902 5904 5904 5905 5905 5905 5905 5906 5907 5907 5908 5909 5909 5911 5912 5912 5913 5913 5913 5912 5912 5911 5911 5911 5912 5912 5911 5910 5910 5909 5908 5907 5905 5903 5901 5900 5898 5897 5895 5894 5894 5893 5892 5891 5890 5890 5889 5889 5888 5887 5886 5885 5884 5883 5882 5882 5881 5879 5878 5877 5876 5874 5873 5871 5870 5869 5868 5867 5866 5865 5864 5862 5861 5860
5890 5890 5890 5892 5892 5893 5893 5895 5896 5897 5898 5900 5901 5902 5902 5902 5902 5902 5903 5904 5904 5905 5906 5907 5908 5909 5910 5911 5911 5911 5910 5910 5909 5909 5909 5909 5909 5909 5908 5908 5907 5906 5905 5903 5902 5900 5898 5897 5896 5894 5893 5893 5892 5891 5890 5889 5888 5887 5887 5886 5885 5884 5883 5882 5880 5879 5879 5878 5877 5876 5874 5873 5871 5870 5869 5867 5866 5865 5864 5863 5862 5860 5859 5858 5856
5887 5888 5888 5889 5890 5890 5891 5892 5893 5894 5896 5897 5897 5898 5898 5899 5899 5899 5900 5900 5901 5902 5902 5904 5906 5907 5908 5909 5909 5909 5909 5908 5908 5908 5908 5907 5907 5907 5906 5906 5905 5904 5903 5902 5900 5899 5897 5896 5894 5893 5892 5892 5891 5890 5889 5888 5887 5886 5885 5884 5883 5882 5881 5879 5878 5877 5876 5874 5873 5872 5871 5870 5868 5867 5866 5864 5863 5861 5860 5859 5858 5857 5856 5855 5853
5884 5886 5886 5887 5887 5888 5889 5889 5890 5892 5893 5893 5894 5895 5895 5896 5896 5896 5897 5897 5898 5899 5900 5902 5903 5905 5906 5906 5907 5907 5907 5906 5906 5906 5906 5906 5905 5905 5904 5904 5903 5902 5901 5899 5898 5897 5896 5894 5893 5892 5891 5890 5890 5889 5888 5887 5885 5884 5883 5882 5881 5879 5878 5877 5876 5875 5873 5871 5869 5868 5867 5866 5864 5863 5862 5861 5859 5857 5856 5855 5854 5853 5852 5851 5849
5882 5883 5884 5885 5885 5886 5886 5887 5888 5889 5890 5890 5891 5892 5892 5893 5893 5894 5894 5895 5895 5896 5897 5899 5901 5903 5903 5904 5905 5905 5905 5904 5904 5904 5904 5904 5904 5903 5902 5902 5901 5900 5898 5897 5896 5895 5894 5893 5891 5890 5889 5888 5887 5886 5885 5884 5883 5882 5880 5879 5878 5877 5876 5875 5874 5872 5870 5867 5865 5864 5863 5861 5860 5858 5858 5857 5855 5853 5852 5851 5850 5848 5848 5847 5844
5880 5881 5882 5883 5884 5884 5884 5885 5886 5886 5887 5888 5889 5889 5890 5890 5891 5891 5892 5892 5893 5894 5895 5897 5899 5900 5900 5901 5902 5903 5903 5903 5902 5902 5903 5902 5902 5901 5900 5900 5898 5897 5896 5895 5894 5893 5892 5891 5889 5888 5887 5886 5885 5884 5883 5882 5880 5879 5878 5877 5876 5874 5873 5872 5871 5869 5867 5864 5862 5860 5858 5857 5855 5853 5853 5852 5851 5850 5848 5847 5845 5844 5844 5843 5841
5877 5879 5880 5881 5882 5882 5882 5883 5884 5884 5885 5885 5886 5887 5887 5888 5889 5889 5890 5891 5892 5892 5893 5894 5896 5897 5898 5898 5899 5900 5900 5901 5900 5900 5901 5901 5900 5900 5899 5898 5896 5895 5894 5892 5892 5891 5889 5888 5887 5885 5884 5883 5881 5880 5879 5878 5877 5876 5875 5874 5873 5871 5870 5869 5867 5865 5864 5861 5859 5857 5855 5853 5851 5849 5848 5847 5847 5846 5845 5843 5842 5840 5840 5839 5837
5875 5876 5877 5879 5880 5880 5880 5881 5881 5882 5883 5883 5884 5885 5885 5886 5887 5887 5888 5889 5890 5891 5891 5892 5893 5894 5895 5896 5897 5897 5898 5899 5898 5898 5898 5898 5899 5898 5897 5896 5894 5893 5891 5890 5889 5888 5887 5885 5883 5881 5880 5879 5878 5877 5876 5875 5874 5872 5872 5871 5869 5868 5866 5865 5863 5862 5860 5858 5856 5854 5852 5850 5847 5845 5844 5843 5843 5842 5840 5839 5838 5836 5835 5834 5832
5872 5874 5875 5877 5877 5877 5878 5879 5879 5880 5881 5882 5882 5883 5883 5884 5885 5885 5886 5887 5888 5889 5889 5889 5891 5892 5892 5893 5893 5895 5896 5896 5896 5896 5896 5896 5896 5896 5895 5894 5892 5891 5889 5888 5887 5885 5884 5881 5878 5877 5877 5876 5875 5874 5872 5871 5870 5869 5868 5867 5865 5863 5862 5861 5859 5857 5856 5855 5853 5851 5849 5847 5843 5841 5840 5839 5838 5837 5835 5834 5832 5831 5830 5829 5827
5870 5871 5873 5874 5875 5875 5876 5877 5877 5878 5879 5880 5880 5881 5881 5882 5883 5883 5884 5885 5885 5886 5886 5887 5889 5889 5890 5890 5890 5892 5893 5893 5893 5893 5893 5893 5893 5893 5892 5891 5890 5888 5886 5885 5884 5882 5879 5876 5875 5875 5876 5875 5873 5872 5870 5869 5868 5866 5865 5863 5861 5859 5858 5856 5855 5853 5852 5851 5849 5847 5845 5843 5839 5837 5835 5834 5832 5831 5830 5828 5827 5826 5825 5824 5823
5868 5869 5871 5872 5872 5873 5874 5875 5875 5876 5877 5878 5878 5879 5879 5880 5881 5881 5882 5882 5883 5883 5884 5885 5886 5886 5886 5887 5888 5889 5890 5890 5890 5890 5891 5891 5890 5890 5889 5889 5887 5886 5883 5882 5880 5878 5876 5875 5875 5875 5874 5873 5871 5870 5868 5867 5866 5864 5862 5859 5857 5855 5853 5851 5850 5848 5847 5846 5845 5843 5840 5838 5835 5832 5830 5829 5828 5826 5825 5824 5822 5821 5820 5819 5817
5865 5867 5868 5869 5870 5871 5872 5872 5873 5874 5875 5875 5876 5876 5877 5878 5878 5879 5880 5880 5880 5881 5881 5882 5883 5883 5884 5884 5885 5886 5886 5886 5886 5887 5888 5887 5887 5886 5886 5885 5884 5882 5880 5878 5877 5877 5876 5874 5873 5872 5871 5870 5869 5867 5866 5865 5864 5861 5859 5856 5853 5850 5848 5847 5845 5844 5843 5842 5840 5838 5835 5833 5830 5828 5825 5823 5822 5821 5820 5819 5817 5816 5815 5814 5812
5862 5864 5865 5866 5867 5868 5869 5870 5872 5872 5873 5873 5873 5873 5874 5875 5876 5877 5877 5877 5877 5878 5878 5879 5880 5880 5881 5881 5882 5882 5883 5883 5883 5884 5884 5884 5883 5882 5882 5881 5881 5879 5876 5876 5876 5875 5872 5869 5868 5868 5868 5867 5866 5864 5863 5861 5860 5858 5855 5852 5849 5846 5843 5841 5840 5840 5839 5837 5834 5833 5831 5828 5825 5823 5821 5819 5817 5816 5815 5814 5812 5811 5809 5808 5806
5859 5861 5862 5863 5864 5865 5866 5868 5869 5870 5870 5870 5870 5871 5871 5872 5873 5874 5874 5874 5875 5875 5875 5875 5876 5877 5878 5878 5878 5879 5880 5880 5880 5880 5881 5880 5879 5879 5878 5877 5876 5875 5874 5875 5875 5873 5870 5867 5865 5865 5865 5863 5862 5860 5859 5857 5855 5854 5852 5849 5845 5842 5839 5836 5835 5835 5834 5832 5829 5827 5825 5822 5820 5819 5817 5816 5813 5812 5811 5809 5807 5805 5803 5801 5799
5856 5857 5858 5859 5861 5862 5864 5865 5866 5867 5867 5867 5867 5867 5868 5869 5870 5870 5870 5871 5871 5872 5872 5872 5873 5873 5874 5874 5874 5875 5876 5876 5876 5877 5877 5876 5875 5875 5874 5873 5872 5871 5872 5873 5872 5869 5867 5865 5863 5862 5861 5860 5858 5856 5855 5853 5851 5850 5848 5845 5842 5838 5835 5832 5831 5830 5829 5827 5825 5823 5820 5817 5815 5813 5812 5810 5809 5807 5806 5804 5801 5799 5797 5795 5793
5852 5853 5855 5856 5858 5859 5860 5861 5862 5862 5863 5863 5864 5864 5865 5866 5866 5866 5866 5867 5868 5868 5868 5869 5869 5869 5869 5869 5870 5872 5872 5872 5873 5873 5872 5872 5871 5871 5870 5869 5868 5868 5869 5870 5869 5866 5863 5861 5860 5858 5857 5855 5854 5853 5850 5848 5846 5845 5843 5840 5837 5834 5831 5829 5827 5826 5824 5822 5820 5818 5815 5812 5810 5808 5807 5806 5805 5803 5801 5799 5797 5794 5792 5790 5787
5849 5850 5852 5853 5854 5855 5856 5857 5857 5857 5858 5859 5860 5860 5860 5861 5861 5861 5862 5863 5864 5864 5865 5865 5865 5865 5865 5865 5866 5867 5868 5868 5868 5869 5868 5868 5868 5867 5866 5865 5864 5865 5866 5866 5865 5863 5860 5858 5856 5854 5853 5852 5851 5848 5845 5843 5841 5840 5838 5835 5833 5830 5827 5825 5824 5822 5820 5818 5816 5814 5811 5809 5807 5805 5803 5802 5800 5798 5796 5794 5792 5790 5787 5784 5782
5846 5847 5848 5849 5849 5850 5851 5852 5852 5852 5853 5854 5855 5855 5855 5855 5855 5856 5856 5858 5859 5860 5860 5860 5860 5860 5860 5861 5861 5862 5863 5863 5864 5864 5864 5864 5864 5863 5862 5861 5861 5862 5862 5861 5860 5859 5857 5855 5853 5850 5849 5848 5847 5844 5841 5839 5837 5835 5833 5830 5828 5825 5823 5822 5820 5818 5816 5814 5811 5810 5807 5805 5803 5801 5799 5797 5795 5793 5790 5788 5786 5784 5782 5779 5776
5840 5841 5842 5842 5843 5844 5845 5846 5847 5847 5848 5849 5850 5849 5849 5849 5849 5849 5850 5852 5853 5854 5855 5855 5855 5856 5856 5856 5856 5857 5857 5858 5859 5860 5859 5859 5859 5859 5858 5857 5858 5858 5858 5856 5855 5855 5853 5852 5850 5848 5845 5844 5842 5840 5837 5834 5832 5830 5828 5826 5823 5821 5819 5819 5817 5814 5812 5810 5807 5805 5802 5800 5798 5796 5794 5792 5790 5787 5785 5784 5781 5779 5776 5773 5769
5834 5835 5836 5837 5838 5838 5839 5841 5842 5842 5842 5843 5843 5843 5843 5844 5844 5844 5845 5845 5846 5847 5849 5850 5850 5850 5851 5851 5851 5852 5852 5853 5854 5854 5854 5855 5855 5854 5854 5854 5854 5854 5853 5852 5851 5850 5848 5847 5846 5844 5842 5840 5838 5835 5832 5830 5828 5827 5825 5822 5819 5818 5816 5815 5813 5810 5808 5806 5803 5800 5797 5795 5792 5790 5789 5787 5785 5782 5780 5779 5776 5774 5770 5767 5763
5829 5830 5831 5832 5833 5834 5835 5836 5837 5837 5837 5837 5837 5838 5839 5839 5839 5839 5839 5840 5840 5841 5842 5843 5843 5844 5844 5845 5846 5846 5847 5848 5848 5848 5849 5850 5850 5849 5849 5849 5850 5849 5849 5848 5847 5845 5844 5843 5842 5840 5838 5836 5834 5832 5829 5827 5825 5823 5821 5818 5816 5815 5813 5811 5808 5806 5804 5801 5799 5796 5793 5790 5788 5785 5784 5782 5779 5777 5776 5774 5771 5768 5765 5761 5758
5825 5825 5826 5827 5828 5829 5831 5831 5832 5832 5832 5831 5831 5832 5833 5833 5834 5834 5834 5835 5835 5835 5836 5836 5836 5837 5837 5839 5840 5841 5841 5842 5842 5843 5843 5844 5844 5844 5843 5844 5844 5844 5844 5844 5843 5841 5840 5839 5837 5836 5834 5833 5831 5828 5826 5824 5821 5819 5817 5815 5813 5811 5809 5807 5804 5802 5800 5797 5795 5792 5789 5786 5783 5781 5779 5777 5775 5773 5771 5769 5766 5763 5759 5756 5752
5820 5821 5822 5823 5823 5824 5825 5825 5826 5826 5826 5826 5826 5826 5826 5826 5827 5828 5828 5828 5828 5829 5829 5829 5829 5830 5831 5832 5834 5835 5835 5836 5837 5837 5837 5838 5838 5838 5837 5838 5839 5839 5839 5839 5838 5836 5836 5835 5833 5831 5831 5830 5828 5826 5823 5820 5818 5815 5813 5811 5809 5807 5805 5803 5801 5798 5795 5792 5790 5787 5784 5782 5779 5777 5775 5773 5771 5769 5766 5763 5760 5757 5754 5751 5747
5815 5816 5817 5818 5819 5819 5819 5819 5819 5819 5819 5820 5820 5820 5821 5821 5821 5821 5821 5821 5821 5821 5822 5822 5823 5824 5825 5826 5827 5828 5829 5830 5831 5831 5831 5831 5832 5831 5830 5832 5834 5833 5833 5834 5833 5831 5831 5830 5828 5827 5826 5826 5824 5821 5819 5816 5813 5811 5809 5807 5805 5803 5801 5799 5797 5794 5790 5788 5785 5782 5779 5777 5774 5772 5770 5768 5766 5763 5761 5758 5755 5752 5749 5746 5742
5809 5810 5811 5811 5812 5812 5812 5812 5813 5813 5812 5812 5812 5813 5813 5813 5813 5813 5813 5813 5814 5815 5814 5815 5816 5817 5818 5819 5820 5821 5821 5821 5823 5824 5824 5824 5825 5824 5824 5826 5827 5827 5827 5828 5827 5826 5825 5824 5823 5822 5822 5821 5819 5817 5814 5812 5809 5806 5805 5803 5801 5799 5797 5795 5792 5789 5786 5783 5780 5777 5774 5772 5769 5767 5765 5763 5760 5758 5755 5752 5749 5746 5744 5741 5738
5802 5803 5803 5804 5804 5804 5804 5805 5805 5805 5804 5804 5804 5804 5804 5803 5804 5805 5805 5805 5806 5807 5807 5807 5807 5808 5809 5811 5812 5812 5812 5812 5813 5814 5815 5817 5817 5817 5818 5820 5820 5819 5820 5821 5820 5820 5819 5818 5817 5817 5816 5816 5814 5812 5809 5807 5804 5802 5800 5798 5796 5794 5792 5790 5787 5785 5782 5779 5776 5773 5770 5767 5764 5761 5759 5757 5754 5752 5750 5747 5744 5741 5739 5737 5734
5797 5797 5797 5798 5798 5797 5798 5798 5797 5797 5797 5796 5796 5796 5796 5795 5795 5796 5797 5797 5797 5798 5798 5798 5798 5799 5800 5801 5802 5803 5803 5803 5803 5805 5806 5808 5809 5809 5810 5812 5811 5811 5813 5814 5813 5813 5813 5812 5811 5811 5811 5811 5809 5807 5804 5802 5799 5797 5795 5793 5791 5789 5787 5785 5783 5780 5778 5775 5771 5768 5765 5762 5759 5756 5754 5752 5749 5747 5745 5742 5740 5738 5735 5733 5731
5790 5790 5791 5791 5791 5791 5790 5790 5789 5789 5789 5788 5788 5788 5788 5787 5787 5786 5787 5787 5787 5788 5789 5788 5789 5790 5790 5790 5792 5795 5795 5795 5796 5797 5797 5798 5800 5801 5801 5802 5802 5803 5805 5806 5806 5807 5806 5805 5805 5805 5805 5805 5803 5801 5799 5797 5794 5792 5791 5789 5787 5785 5782 5780 5778 5775 5773 5770 5767 5764 5760 5757 5754 5752 5749 5747 5745 5743 5741 5738 5736 5734 5732 5730 5728
5783 5784 5784 5784 5784 5783 5782 5781 5781 5780 5780 5780 5780 5780 5780 5780 5778 5776 5776 5777 5778 5779 5779 5779 5778 5778 5777 5778 5782 5785 5784 5784 5784 5784 5784 5787 5790 5791 5792 5793 5794 5797 5800 5801 5801 5801 5800 5799 5799 5800 5799 5799 5797 5795 5793 5791 5789 5787 5786 5784 5782 5780 5778 5775 5773 5770 5768 5765 5762 5758 5755 5752 5749 5747 5745 5743 5740 5739 5737 5735 5733 5731 5729 5727 5725
5777 5777 5777 5777 5777 5777 5775 5773 5772 5772 5772 5772 5771 5771 5771 5770 5767 5763 5763 5765 5767 5767 5768 5770 5770 5769 5767 5766 5769 5772 5773 5773 5774 5774 5774 5778 5781 5783 5785 5788 5790 5791 5794 5795 5795 5795 5795 5794 5794 5794 5793 5792 5791 5789 5787 5785 5784 5782 5781 5779 5777 5775 5773 5770 5767 5765 5763 5760 5757 5754 5750 5748 5745 5743 5741 5739 5737 5735 5733 5732 5730 5729 5727 5724 5721
5770 5770 5771 5770 5770 5769 5768 5766 5765 5765 5764 5764 5764 5763 5762 5759 5754 5750 5750 5752 5753 5753 5754 5756 5757 5757 5756 5755 5756 5761 5765 5766 5767 5767 5767 5770 5775 5776 5777 5781 5783 5784 5785 5788 5788 5788 5788 5788 5788 5788 5787 5786 5785 5783 5781 5780 5778 5777 5775 5774 5772 5770 5768 5765 5763 5760 5758 5756 5752 5749 5746 5744 5741 5739 5737 5735 5734 5732 5730 5729 5727 5726 5724 5721 5718
5763 5763 5763 5762 5762 5761 5760 5759 5758 5758 5758 5758 5758 5757 5753 5747 5740 5738 5739 5740 5740 5739 5740 5741 5741 5741 5743 5744 5746 5750 5755 5757 5758 5760 5761 5764 5767 5768 5767 5772 5776 5777 5777 5780 5781 5781 5781 5782 5782 5781 5781 5780 5778 5777 5775 5774 5773 5771 5770 5769 5767 5765 5763 5761 5759 5756 5754 5751 5748 5745 5742 5740 5737 5735 5733 5732 5730 5728 5727 5726 5724 5722 5720 5717 5714
5755 5755 5755 5754 5754 5753 5752 5751 5750 5750 5751 5751 5750 5748 5743 5734 5727 5726 5728 5726 5724 5722 5721 5721 5723 5725 5726 5729 5735 5741 5746 5749 5750 5752 5754 5756 5758 5758 5760 5765 5768 5770 5771 5772 5773 5773 5774 5775 5776 5775 5774 5773 5772 5771 5769 5769 5767 5766 5765 5763 5761 5759 5758 5756 5754 5752 5750 5746 5743 5740 5738 5735 5733 5731 5729 5728 5727 5726 5724 5723 5721 5719 5717 5714 5711
5748 5748 5747 5747 5747 5745 5744 5743 5742 5742 5742 5742 5740 5738 5732 5724 5718 5716 5713 5707 5703 5701 5696 5694 5701 5710 5713 5715 5725 5734 5737 5739 5741 5744 5746 5748 5750 5753 5756 5759 5760 5762 5764 5765 5766 5767 5768 5769 5770 5769 5768 5767 5766 5765 5764 5763 5762 5761 5759 5758 5756 5755 5753 5751 5750 5748 5745 5741 5738 5736 5733 5731 5729 5727 5726 5725 5724 5723 5722 5720 5719 5716 5713 5711 5708
5741 5741 5741 5740 5739 5738 5737 5735 5734 5734 5734 5733 5731 5728 5722 5716 5711 5707 5704 5694 5677 5659 5650 5654 5668 5686 5697 5705 5716 5725 5729 5731 5734 5736 5738 5740 5743 5747 5750 5752 5753 5755 5756 5757 5758 5761 5763 5763 5763 5763 5762 5761 5759 5759 5758 5757 5756 5755 5754 5752 5751 5750 5748 5747 5745 5742 5739 5736 5733 5731 5729 5727 5725 5724 5723 5722 5721 5720 5719 5718 5716 5713 5710 5708 5705
5734 5734 5734 5733 5732 5731 5730 5728 5727 5727 5726 5725 5724 5719 5714 5709 5704 5699 5702 5699 5677 5648 5637 5646 5659 5672 5686 5698 5708 5716 5721 5724 5726 5728 5729 5732 5737 5740 5742 5744 5746 5748 5749 5750 5753 5755 5756 5756 5756 5756 5755 5754 5753 5753 5752 5751 5750 5750 5748 5747 5746 5745 5743 5742 5740 5737 5734 5731 5729 5727 5725 5723 5721 5720 5720 5719 5718 5717 5716 5715 5713 5710 5708 5705 5703
5727 5727 5727 5726 5725 5723 5722 5721 5720 5721 5719 5717 5716 5713 5707 5704 5701 5694 5693 5697 5689 5672 5664 5667 5672 5678 5687 5695 5701 5707 5712 5714 5717 5720 5724 5727 5730 5732 5734 5737 5740 5741 5742 5745 5747 5749 5749 5749 5749 5749 5748 5748 5747 5747 5746 5746 5745 5744 5743 5742 5741 5740 5739 5738 5736 5732 5729 5727 5725 5723 5721 5719 5718 5717 5717 5716 5716 5715 5714 5712 5710 5708 5705 5703 5701
5721 5720 5720 5719 5717 5716 5715 5714 5713 5714 5713 5710 5708 5706 5701 5697 5696 5692 5688 5688 5688 5685 5680 5677 5678 5683 5689 5691 5694 5698 5703 5706 5711 5715 5719 5721 5723 5725 5728 5731 5733 5735 5737 5739 5741 5742 5742 5742 5742 5742 5742 5742 5741 5741 5741 5740 5739 5739 5738 5737 5736 5735 5734 5733 5730 5727 5725 5723 5720 5718 5717 5715 5715 5715 5714 5714 5713 5712 5711 5709 5707 5705 5703 5701 5699
5714 5713 5712 5712 5711 5709 5708 5708 5707 5707 5707 5704 5700 5699 5697 5692 5689 5688 5685 5682 5682 5683 5681 5679 5681 5685 5688 5689 5691 5694 5698 5703 5708 5710 5712 5714 5716 5719 5722 5725 5726 5729 5731 5733 5734 5735 5735 5735 5735 5735 5735 5735 5735 5735 5735 5734 5734 5733 5732 5732 5731 5730 5729 5728 5725 5722 5720 5718 5716 5714 5713 5712 5712 5712 5711 5711 5710 5709 5708 5707 5705 5702 5700 5698 5696
5707 5707 5706 5706 5706 5704 5703 5703 5702 5701 5701 5699 5696 5693 5693 5691 5687 5684 5682 5680 5678 5677 5676 5676 5680 5685 5687 5688 5690 5693 5697 5701 5704 5705 5706 5709 5711 5714 5718 5720 5721 5723 5726 5727 5727 5728 5728 5728 5729 5729 5729 5729 5729 5729 5729 5728 5728 5727 5727 5727 5726 5725 5724 5723 5720 5718 5716 5714 5712 5711 5710 5710 5710 5709 5708 5707 5707 5706 5705 5704 5702 5700 5697 5695 5694
5700 5701 5701 5700 5700 5699 5698 5697 5697 5696 5695 5694 5693 5690 5689 5688 5686 5684 5682 5680 5678 5677 5676 5677 5680 5683 5686 5688 5690 5692 5695 5698 5700 5702 5704 5706 5708 5710 5713 5714 5716 5719 5720 5721 5721 5721 5721 5722 5722 5723 5723 5723 5723 5723 5723 5722 5722 5722 5722 5721 5721 5720 5719 5718 5715 5713 5712 5710 5708 5707 5707 5707 5706 5706 5705 5704 5704 5703 5702 5701 5699 5697 5695 5693 5691
5693 5694 5695 5694 5694 5694 5693 5692 5692 5692 5690 5689 5688 5687 5686 5685 5684 5684 5682 5681 5679 5679 5679 5679 5681 5683 5685 5687 5689 5691 5692 5694 5696 5698 5700 5701 5703 5706 5707 5709 5711 5713 5714 5714 5714 5714 5715 5715 5716 5716 5717 5717 5717 5717 5717 5716 5716 5717 5716 5716 5716 5715 5714 5713 5711 5709 5707 5706 5705 5704 5704 5703 5703 5702 5701 5701 5701 5700 5699 5698 5696 5694 5692 5690 5688
5687 5687 5687 5687 5687 5687 5687 5687 5686 5686 5686 5685 5683 5682 5682 5681 5681 5681 5682 5681 5681 5680 5681 5681 5682 5684 5685 5686 5687 5688 5689 5691 5692 5694 5696 5697 5699 5701 5702 5704 5705 5706 5707 5708 5708 5708 5708 5709 5710 5710 5711 5711 5711 5711 5711 5711 5711 5711 5711 5711 5710 5710 5709 5708 5706 5705 5703 5702 5701 5700 5700 5700 5699 5699 5698 5698 5697 5697 5696 5694 5692 5690 5689 5687 5686
5680 5680 5680 5681 5681 5681 5681 5681 5681 5681 5681 5680 5679 5678 5677 5677 5677 5677 5678 5678 5678 5678 5679 5679 5680 5680 5682 5683 5684 5685 5686 5687 5688 5690 5692 5693 5694 5695 5697 5698 5699 5700 5700 5701 5701 5701 5702 5703 5703 5704 5705 5705 5705 5706 5706 5706 5706 5706 5706 5706 5705 5705 5705 5703 5702 5701 5699 5698 5697 5697 5696 5696 5696 5695 5695 5694 5694 5693 5692 5691 5689 5687 5686 5684 5683
5673 5673 5673 5673 5674 5675 5675 5675 5675 5676 5676 5675 5674 5674 5673 5673 5672 5673 5673 5673 5673 5674 5675 5675 5676 5676 5677 5678 5679 5680 5681 5682 5684 5685 5686 5687 5688 5690 5690 5691 5692 5693 5694 5694 5694 5695 5695 5696 5697 5698 5699 5699 5700 5700 5700 5700 5701 5700 5700 5701 5701 5700 5700 5699 5698 5696 5695 5694 5693 5693 5692 5692 5692 5691 5691 5691 5690 5690 5689 5687 5685 5684 5682 5681 5680
5666 5666 5666 5666 5667 5668 5669 5669 5670 5670 5670 5670 5670 5670 5669 5668 5668 5667 5667 5666 5667 5667 5668 5669 5670 5671 5672 5673 5674 5675 5676 5677 5678 5679 5680 5681 5682 5683 5684 5685 5686 5686 5687 5687 5688 5688 5689 5690 5691 5692 5693 5694 5694 5695 5695 5695 5695 5695 5695 5696 5696 5695 5695 5694 5693 5692 5691 5690 5689 5689 5688 5688 5688 5688 5688 5687 5687 5686 5685 5683 5682 5680 5679 5678 5677
5661 5661 5660 5660 5660 5661 5662 5663 5664 5664 5664 5664 5665 5665 5665 5665 5664 5663 5662 5661 5661 5662 5662 5663 5664 5665 5666 5667 5667 5668 5670 5671 5672 5673 5674 5675 5676 5677 5677 5678 5679 5679 5680 5681 5681 5682 5683 5685 5686 5687 5688 5688 5689 5689 5690 5690 5690 5690 5691 5691 5691 5691 5690 5690 5689 5688 5686 5686 5685 5685 5685 5684 5684 5684 5684 5684 5683 5682 5681 5680 5678 5677 5676 5675 5674
5657 5656 5655 5655 5655 5656 5657 5657 5658 5659 5659 5659 5659 5660 5661 5661 5660 5660 5659 5658 5657 5657 5658 5658 5658 5659 5659 5660 5662 5663 5663 5664 5665 5666 5666 5667 5668 5669 5670 5671 5672 5672 5673 5674 5675 5676 5678 5679 5680 5681 5682 5683 5684 5684 5685 5685 5685 5685 5686 5686 5686 5686 5686 5685 5685 5684 5683 5682 5682 5681 5680 5680 5680 5680 5680 5680 5680 5679 5678 5676 5675 5674 5673 5672 5671
5651 5651 5651 5651 5651 5651 5652 5652 5653 5653 5654 5654 5654 5655 5656 5656 5656 5656 5656 5656 5655 5655 5655 5654 5654 5654 5654 5655 5656 5657 5657 5658 5658 5659 5659 5660 5661 5661 5662 5663 5664 5665 5666 5667 5669 5671 5672 5673 5675 5676 5677 5678 5679 5680 5680 5680 5680 5680 5681 5681 5681 5681 5681 5681 5681 5680 5679 5678 5678 5677 5676 5676 5676 5676 5676 5676 5676 5675 5674 5672 5671 5670 5669 5668 5668
5646 5646 5647 5648 5648 5648 5648 5648 5648 5648 5649 5649 5649 5649 5650 5650 5651 5652 5652 5652 5652 5652 5652 5652 5651 5650 5650 5650 5651 5651 5652 5652 5653 5653 5653 5653 5654 5654 5655 5656 5657 5659 5660 5662 5664 5665 5667 5669 5670 5671 5672 5673 5674 5674 5675 5675 5675 5675 5675 5676 5676 5676 5677 5677 5677 5677 5676 5675 5674 5673 5672 5672 5672 5672 5672 5672 5672 5671 5670 5669 5668 5666 5665 5665 5664